Location: Unspecified
(0.0000°N, 0.0000°E)
Time: 20:32:46
(UTC+00:00)

Explorer 7 - All Passes

Search period start: 02 March 2015 00:00
Search period end: 12 March 2015 00:00
Orbit: 489 x 697 km, 50.3° (Epoch: 02 March)

Date Brightness Start Highest point End Pass type
(mag) Time Alt. Az. Time Alt. Az. Time Alt. Az.
02 Mar - 01:07:36 10° W 01:10:38 18° NW 01:13:26 10° N night (unlit)
02 Mar - 11:29:22 10° NNW 11:33:19 38° NE 11:37:35 10° ESE daylight
02 Mar - 13:11:38 10° W 13:14:11 14° SW 13:16:36 10° SSW daylight
02 Mar - 23:34:05 10° SSW 23:38:32 61° SE 23:42:40 10° NE night (unlit)
03 Mar - 11:37:31 10° NW 11:41:47 88° SW 11:46:23 10° SE daylight
03 Mar - 23:42:36 10° SW 23:47:01 55° NW 23:51:05 10° NNE night (unlit)
04 Mar - 10:07:40 10° NNE 10:09:38 13° NE 10:11:53 10° E daylight
04 Mar - 11:46:19 10° WNW 11:50:18 37° SW 11:54:31 10° SSE daylight
04 Mar - 22:11:14 10° S 22:14:45 22° SE 22:18:11 10° ENE night (unlit)
04 Mar - 23:51:51 10° WSW 23:55:28 23° NW 23:58:48 10° N night (unlit)
05 Mar - 10:14:31 10° N 10:18:08 30° NE 10:22:03 10° ESE daylight
05 Mar - 11:56:00 10° W 11:58:55 17° SW 12:01:49 10° S daylight
05 Mar - 22:18:51 10° SSW 22:23:20 48° SE 22:27:31 10° NE night (unlit)
06 Mar - 00:03:07 10° WNW 00:04:00 10° NW 00:04:35 10° NW night (unlit)
06 Mar - 10:22:27 10° NNW 10:26:34 73° NE 10:31:01 10° SE daylight
06 Mar - 22:27:10 10° SW 22:31:47 71° NW 22:36:04 10° NNE night (unlit)
07 Mar - 10:31:03 10° NW 10:35:02 45° SW 10:39:19 10° SSE daylight
07 Mar - 20:56:13 10° S 20:59:25 18° SE 21:02:38 10° E night (unlit)
07 Mar - 22:36:09 10° WSW 22:40:13 30° NW 22:44:00 10° N night (unlit)
08 Mar - 08:59:42 10° N 09:02:54 23° NE 09:06:22 10° ESE daylight
08 Mar - 10:40:25 10° W 10:43:37 20° SW 10:46:50 10° S daylight
08 Mar - 21:03:35 10° SSW 21:08:00 39° SE 21:12:12 10° ENE night (unlit)
08 Mar - 22:46:15 10° W 22:48:42 14° NW 22:50:51 10° NNW night (unlit)
09 Mar - 09:07:23 10° NNW 09:11:19 55° NE 09:15:33 10° SE daylight
09 Mar - 21:11:43 10° SW 21:16:28 90° NW 21:20:54 10° NE night (unlit)
10 Mar - 09:15:47 10° NW 09:19:44 58° SW 09:23:59 10° SSE daylight
10 Mar - 19:41:16 10° SSE 19:44:00 15° SE 19:46:52 10° E visible
10 Mar - 21:20:27 10° WSW 21:24:53 39° NW 21:29:00 10° NNE visible
11 Mar - 07:44:57 10° N 07:47:36 18° NE 07:50:29 10° E daylight
11 Mar - 09:24:53 10° WNW 09:28:15 24° SW 09:31:44 10° S daylight
11 Mar - 19:48:17 10° S 19:52:35 32° SE 19:56:44 10° ENE visible
11 Mar - 21:30:03 10° W 21:33:19 18° NW 21:36:17 10° N night (unlit)
